Home > Weather > Bergisch Gladbach > Past weeks

Flag for Germany Past Weather in Bergisch Gladbach, North Rhine-Westphalia, Germany — Yesterday and Last 2 Weeks

Now
68 °F

Clear.


Feels Like: 68 °F
Forecast: 68 / 88 °F
Wind: 3 mph from Southeast

Location: Koeln / Bonn

Current Time: Aug 27, 2016 at 8:50:55 AM

Latest Report: Aug 27, 2016 at 8:20 AM


Visibility: 4 mi

Pressure: 30.07 "Hg

Humidity: 94%

Dew Point: 66 °F

Location of Bergisch GladbachLocation

Past Weather in Bergisch Gladbach — Graph

°F

Bergisch Gladbach Temperature Yesterday

Maximum temperature yesterday: 93 °F (at 2:20 PM)
Minimum temperature yesterday: 64 °F (at 3:20 AM)
Average temperature yesterday: 79 °F

High & Low Weather Summary for the Past Weeks

 TemperatureHumidityPressure
High93 °F (Aug 26, 2:20 PM)100% (Aug 12, 9:20 AM)30.36 "Hg (Aug 12, 9:20 AM)
Low48 °F (Aug 16, 6:50 AM)28% (Aug 25, 4:50 PM)29.77 "Hg (Aug 18, 2:20 PM)
Average68 °F71%30.07 "Hg
* Reported Aug 12 7:20 AM — Aug 27 7:20 AM, Bergisch Gladbach, Weather by CustomWeather, © 2016

Note: Actual official high and low records may vary slightly from our data, if they occured in-between our weather recording intervals... More about our weather records

Advertising

Bergisch Gladbach Weather History for the Previous 24 Hours

Scroll right to see more
 ConditionsComfort  
Time TempWeatherWind HumidityBarometerVisibility
7:20 AM
Sat, Aug 27
66 °FFog.2 mph94%30.07 "Hg2 mi
6:50 AM64 °FFog.1 mph100%30.07 "Hg2 mi
6:20 AM64 °FFog.2 mph100%30.07 "Hg4 mi
5:50 AM64 °FFog.1 mph100%30.07 "Hg5 mi
5:20 AM66 °FFog.2 mph100%30.07 "HgN/A
4:50 AM64 °FFog.No wind100%30.07 "HgN/A
4:20 AM66 °FFog.3 mph100%30.07 "HgN/A
3:50 AM66 °FFog.2 mph100%30.07 "HgN/A
3:20 AM68 °FClear.2 mph94%30.07 "Hg10 mi
2:50 AM68 °FClear.5 mph94%30.07 "Hg10 mi
2:20 AM70 °FClear.6 mph88%30.07 "Hg10 mi
1:50 AM72 °FClear.6 mph88%30.07 "Hg10 mi
1:20 AM72 °FPassing clouds.3 mph88%30.07 "HgN/A
12:50 AM72 °FClear.6 mph88%30.07 "Hg10 mi
12:20 AM72 °FPassing clouds.5 mph88%30.07 "HgN/A
11:50 PM
Fri, Aug 26
72 °FClear.2 mph88%30.07 "Hg10 mi
11:20 PM73 °FClear.2 mph89%30.04 "Hg10 mi
10:50 PM73 °FClear.2 mph89%30.04 "Hg10 mi
10:20 PM75 °FClear.2 mph83%30.04 "Hg10 mi
9:50 PM75 °FClear.1 mph83%30.04 "Hg10 mi
9:20 PM77 °FPassing clouds.5 mph79%30.04 "HgN/A
8:50 PM79 °FSunny.6 mph74%30.04 "Hg10 mi
8:20 PM81 °FSunny.7 mph70%30.01 "Hg10 mi
7:50 PM84 °FSunny.3 mph62%30.01 "Hg10 mi
7:20 PM86 °FSunny.3 mph59%30.01 "Hg10 mi
6:50 PM88 °FSunny.5 mph49%30.01 "Hg10 mi
6:20 PM90 °FSunny.6 mph43%30.01 "Hg10 mi
5:50 PM91 °FSunny.7 mph44%30.01 "Hg10 mi
5:20 PM91 °FSunny.5 mph38%30.01 "Hg10 mi
4:50 PM93 °FPassing clouds.3 mph39%30.01 "HgN/A
4:20 PM93 °FSunny.5 mph39%30.01 "Hg10 mi
3:50 PM91 °FPassing clouds.5 mph38%30.01 "HgN/A
3:20 PM91 °FPassing clouds.6 mph38%30.01 "HgN/A
2:50 PM93 °FPassing clouds.3 mph34%30.01 "HgN/A
2:20 PM93 °FPassing clouds.5 mph34%30.01 "HgN/A
1:50 PM91 °FSunny.2 mph38%30.01 "Hg10 mi
1:20 PM90 °FSunny.5 mph43%30.01 "Hg10 mi
12:50 PM88 °FSunny.3 mph46%30.01 "Hg10 mi
12:20 PM88 °FSunny.1 mph46%30.01 "Hg10 mi
11:50 AM84 °FSunny.3 mph48%30.01 "Hg10 mi
11:20 AM82 °FSunny.3 mph51%30.01 "Hg10 mi
10:50 AM81 °FPassing clouds.3 mph54%30.01 "HgN/A
10:20 AM81 °FPassing clouds.6 mph54%30.01 "HgN/A
9:50 AM79 °FPassing clouds.5 mph54%30.01 "HgN/A
9:20 AM75 °FPassing clouds.5 mph61%30.01 "HgN/A
8:50 AM73 °FPassing clouds.5 mph61%30.01 "HgN/A
8:20 AM72 °FPassing clouds.5 mph65%29.98 "HgN/A
Weather by CustomWeather, © 2016

See weather overviewHow to use our weather pages